sat.trackr.live / text

‹ back to catalog

STARLINK-31099

NORAD 58781 · 2024-011S

PAYLOAD ACTIVE UNKNOWN

§ Identity

Operator
Country
US
Launch date
2024-01-14
Launch site
AFWTR
Launch vehicle
Mass (kg)
RCS (m²)

Purposes: comms

External: N2YO · Heavens-Above · Gunter

§ Orbital elements

Epoch: 2026-09-20T11:54:10.418688Z

Period
93.85 min
Inclination
53.1626°
Eccentricity
0.0001318
Mean motion
15.34395559 rev/d
Perigee alt
461.8 km
Apogee alt
463.6 km
Semi-major
6,840.9 km
B*
7.4013e-5
RAAN
187.5629°
Arg perigee
83.6226°
Mean anomaly
276.4927°
Rev number
15,011

§ Raw data

STARLINK-310991 58781U 24011S   26263.49595392  .00002125  00000+0  74013-4 0  99902 58781  53.1626 187.5629 0001318  83.6226 276.4927 15.34395559150116

JSON: /api/v1/satellites/58781 · /tle

For live sub-satellite position, see the globe view (requires WebGL).

§ Visibility from observer

Set your observer location to see the next 7 days of passes ≥ 10°. The values pass through the URL so the page stays shareable.

No JS? Fill the form by hand. The geolocation button needs JavaScript.